Home   Weather   Sinsheim   Past weeks
Flag for Germany

Past Weather in Sinsheim, Baden-Württemberg, Germany — Yesterday and Last 2 Weeks

Now
59 °F

Clear.


Feels Like: 58 °F
Forecast: 63 / 51 °F
Wind: 7 mph from West

Location: Mannheim City

Current Time: Oct 21, 2019 at 12:11:28 am

Latest Report: Oct 20, 2019 at 11:20 pm


Visibility: 10 mi

Pressure: 29.80 "Hg

Humidity: 94%

Dew Point: 57 °F

Location of SinsheimLocation

Past Weather in Sinsheim — Graph

°F

Sinsheim Temperature Yesterday

Maximum temperature yesterday: 66 °F (at 2:20 pm)
Minimum temperature yesterday: 55 °F (at 7:50 am)
Average temperature yesterday: 61 °F

High & Low Weather Summary for the Past Weeks

 TemperatureHumidityPressure
High77 °F (Oct 13, 2:20 pm)100% (Oct 6, 12:50 pm)30.12 "Hg (Oct 6, 12:50 pm)
Low48 °F (Oct 6, 11:20 am)44% (Oct 14, 4:50 pm)29.71 "Hg (Oct 15, 7:50 am)
Average59 °F80%29.91 "Hg
* Reported Oct 6 7:20 am — Oct 20 10:20 pm, Sinsheim. Weather by CustomWeather, © 2019

Note: Actual official high and low records may vary slightly from our data, if they occured in-between our weather recording intervals... More about our weather records

Advertising

Sinsheim Weather History for the Previous 24 Hours

Scroll right to see more
 ConditionsComfort  
Time TempWeatherWind HumidityBarometerVisibility
10:20 pm
Sun, Oct 20
57 °FClear.No wind94%29.77 "Hg10 mi
9:50 pm59 °FClear.1 mph94%29.77 "Hg10 mi
9:20 pm59 °FClear.2 mph94%29.77 "Hg10 mi
8:50 pm57 °FClear.2 mph100%29.77 "Hg10 mi
7:50 pm59 °FClear.1 mph94%29.77 "Hg10 mi
7:20 pm61 °FClear.1 mph88%29.80 "Hg10 mi
6:50 pm61 °FClear.5 mph88%29.77 "Hg10 mi
6:20 pm63 °FSunny.3 mph83%29.77 "Hg10 mi
5:50 pm63 °FSunny.5 mph88%29.77 "Hg10 mi
5:20 pm64 °FSunny.3 mph83%29.74 "Hg10 mi
4:50 pm64 °FPassing clouds.6 mph83%29.74 "HgN/A
4:20 pm64 °FSunny.3 mph83%29.77 "Hg10 mi
3:50 pm64 °FPassing clouds.7 mph78%29.74 "HgN/A
3:20 pm64 °FPassing clouds.6 mph78%29.74 "HgN/A
2:50 pm66 °FPassing clouds.5 mph73%29.74 "HgN/A
2:20 pm66 °FSunny.3 mph68%29.74 "Hg10 mi
1:50 pm64 °FSunny.2 mph73%29.74 "Hg10 mi
1:20 pm64 °FSunny.3 mph73%29.74 "Hg10 mi
12:50 pm64 °FPassing clouds.5 mph73%29.77 "HgN/A
12:20 pm63 °FSunny.3 mph77%29.74 "Hg10 mi
11:50 am63 °FSunny.1 mph77%29.74 "Hg10 mi
11:20 am63 °FSunny.3 mph77%29.77 "Hg10 mi
10:50 am63 °FSunny.3 mph77%29.77 "Hg10 mi
10:20 am59 °FPartly sunny.3 mph94%29.77 "HgN/A
9:50 am61 °FBroken clouds.1 mph83%29.77 "HgN/A
9:20 am57 °FSunny.3 mph94%29.77 "Hg10 mi
8:50 am57 °FSunny.2 mph94%29.77 "Hg10 mi
8:20 am55 °FPassing clouds.5 mph100%29.77 "HgN/A
7:50 am55 °FLight rain. Overcast.2 mph100%29.77 "HgN/A
Weather by CustomWeather, © 2019

See weather overview